Location: Unspecified
(44.4377°N, 88.0525°W)
Time: 12:46:49
(UTC-05:00)

ISS - Pass Details

Date: 28 March 2018
Orbit: 402 x 408 km, 51.6° (Epoch: 23 July)

Event Time Altitude Azimuth Distance (km) Brightness Sun altitude
Rises 21:07:00 0° 273° (W) 2,353 1.2 -20.0°
Reaches altitude 10° 21:09:17 10° 285° (WNW) 1,493 0.2 -20.4°
Maximum altitude 21:12:14 28° 347° (NNW) 818 -1.9 -20.8°
Enters shadow 21:13:19 23° 20° (NNE) 938 -2.0 -21.0°
